Home > Weather > Ede > Past weeks

Flag for Netherlands Past Weather in Ede, Netherlands — Yesterday and Last 2 Weeks

Now
66 °F

Broken clouds.


Feels Like: 66 °F
Forecast: 57 / 69 °F
Wind: 9 mph from South

Location: Deelen

Current Time: Jun 30, 2016 at 6:03:02 PM

Latest Report: Jun 30, 2016 at 5:25 PM


Visibility: N/A

Pressure: 29.86 "Hg

Humidity: 78%

Dew Point: 59 °F

Location of EdeLocation

Past Weather in Ede — Graph

°F

Ede Temperature Yesterday

Maximum temperature yesterday: 68 °F (at 3:25 PM)
Minimum temperature yesterday: 55 °F (at 4:55 AM)
Average temperature yesterday: 60 °F

High & Low Weather Summary for the Past Weeks

 TemperatureHumidityPressure
High86 °F (Jun 23, 5:25 PM)100% (Jun 16, 4:25 AM)30.24 "Hg (Jun 16, 4:25 AM)
Low48 °F (Jun 28, 3:25 AM)46% (Jun 16, 1:55 PM)29.47 "Hg (Jun 15, 4:25 PM)
Average62 °F83%29.96 "Hg
* Reported Jun 15 4:25 PM — Jun 30 4:55 PM, Ede, Weather by CustomWeather, © 2016

Note: Actual official high and low records may vary slightly from our data, if they occured in-between our weather recording intervals... More about our weather records

Advertising

Ede Weather History for the Previous 24 Hours

Scroll right to see more
 ConditionsComfort  
Time TempWeatherWind HumidityBarometerVisibility
4:55 PM
Thu, Jun 30
64 °FPartly sunny.12 mph88%29.86 "HgN/A
4:25 PM63 °FBroken clouds.9 mph94%29.86 "HgN/A
3:55 PM64 °FLight rain. Mostly cloudy.12 mph78%29.86 "HgN/A
3:25 PM64 °FMostly cloudy.14 mph78%29.86 "HgN/A
2:55 PM64 °FCloudy.14 mph78%29.86 "HgN/A
1:25 PM64 °FCloudy.12 mph78%29.86 "HgN/A
12:55 PM63 °FBroken clouds.15 mph83%29.86 "HgN/A
12:25 PM63 °FOvercast.12 mph83%29.86 "HgN/A
11:55 AM63 °FBroken clouds.12 mph83%29.86 "HgN/A
11:25 AM63 °FBroken clouds.10 mph83%29.86 "HgN/A
10:55 AM61 °FBroken clouds.12 mph94%29.86 "HgN/A
10:25 AM61 °FBroken clouds.10 mph88%29.86 "HgN/A
9:55 AM59 °FLight rain. Broken clouds.12 mph94%29.83 "HgN/A
9:25 AM59 °FDrizzle. Broken clouds.13 mph94%29.83 "HgN/A
8:55 AM59 °FDrizzle. Broken clouds.14 mph94%29.83 "Hg6 mi
8:25 AM59 °FDrizzle. Mostly cloudy.7 mph94%29.83 "Hg3 mi
7:55 AM59 °FDrizzle. Mostly cloudy.10 mph94%29.83 "Hg6 mi
7:25 AM59 °FLight rain. Broken clouds.9 mph88%29.83 "HgN/A
6:55 AM59 °FDrizzle. More clouds than sun.9 mph88%29.83 "HgN/A
6:25 AM59 °FBroken clouds.9 mph88%29.80 "HgN/A
5:55 AM57 °FDrizzle. Mostly cloudy.9 mph94%29.80 "HgN/A
5:25 AM57 °FLight rain. Overcast.9 mph94%29.80 "Hg6 mi
4:55 AM57 °FPartly cloudy.7 mph94%29.80 "HgN/A
4:25 AM57 °FMostly cloudy.6 mph94%29.80 "HgN/A
3:55 AM57 °FPartly cloudy.6 mph94%29.80 "HgN/A
3:25 AM57 °FOvercast.5 mph94%29.80 "HgN/A
2:55 AM57 °FPassing clouds.7 mph94%29.83 "HgN/A
2:25 AM57 °FOvercast.3 mph94%29.83 "HgN/A
1:55 AM57 °FOvercast.5 mph94%29.83 "HgN/A
1:25 AM57 °FPartly cloudy.3 mph94%29.83 "HgN/A
12:55 AM57 °FDrizzle. Mostly cloudy.6 mph88%29.83 "HgN/A
12:25 AM57 °FDrizzle. Overcast.3 mph88%29.83 "HgN/A
11:55 PM
Wed, Jun 29
57 °FPartly cloudy.2 mph88%29.83 "HgN/A
11:25 PM57 °FDrizzle. Mostly cloudy.3 mph88%29.83 "HgN/A
10:55 PM57 °FDrizzle. Partly sunny.5 mph88%29.86 "HgN/A
10:25 PM57 °FDrizzle. Mostly cloudy.3 mph88%29.86 "HgN/A
9:55 PM57 °FDrizzle. Broken clouds.2 mph88%29.86 "HgN/A
9:25 PM59 °FDrizzle. Broken clouds.9 mph82%29.86 "HgN/A
8:55 PM63 °FDrizzle. More clouds than sun.17 mph64%29.86 "HgN/A
8:25 PM64 °FPartly sunny.10 mph64%29.86 "HgN/A
7:55 PM66 °FPartly sunny.10 mph56%29.86 "HgN/A
7:25 PM66 °FOvercast.12 mph56%29.83 "HgN/A
6:55 PM66 °FBroken clouds.10 mph60%29.83 "HgN/A
6:25 PM66 °FBroken clouds.8 mph60%29.86 "HgN/A
Weather by CustomWeather, © 2016

See weather overviewHow to use our weather pages